Theta_e
295 296 295 296 296 297 297 298 299 302 303 304 305 307 313 316 319 316 321 326 326 329 329 329 327 325 325 327 325 322 324 322 321 317 314 309 310 308
293 293 293 293 293 294 295 297 297 299 300 302 304 305 307 311 316 319 318 319 324 327 330 329 328 327 326 327 326 324 325 323 322 321 320 319 315 312
290 290 290 291 291 293 294 295 297 296 298 299 300 302 304 308 313 314 316 316 319 325 330 330 329 329 327 327 327 326 326 326 324 323 322 321 322 319
288 289 289 289 290 291 292 293 293 295 296 296 297 298 301 305 308 313 317 317 317 317 327 329 330 329 327 328 327 326 326 326 326 326 325 324 323 322
288 288 288 289 290 291 292 292 293 294 294 294 294 295 298 303 305 309 313 317 319 318 318 328 329 330 329 328 327 326 325 326 326 326 326 326 325 324
288 287 288 288 289 290 290 290 291 292 292 292 292 293 295 300 304 307 313 316 316 318 317 320 323 328 329 328 327 327 326 326 326 326 326 326 326 325
286 286 287 287 287 288 289 289 290 290 290 291 291 290 292 295 302 307 311 315 316 317 318 319 321 326 330 329 327 327 327 326 326 326 326 325 325 325
285 285 285 285 286 286 287 287 287 287 288 288 288 288 290 291 296 302 308 312 318 317 318 317 319 325 327 330 330 328 328 327 326 326 326 326 326 325
283 283 284 284 284 284 284 284 284 286 285 285 286 287 288 290 293 297 303 307 315 318 319 320 314 313 317 326 329 329 329 328 327 327 327 327 326 326
282 282 282 282 282 281 281 281 282 283 284 284 286 287 288 289 292 296 300 304 309 316 318 319 318 318 323 326 327 328 328 328 328 328 327 327 326 325
282 281 280 280 279 280 280 280 281 282 282 283 283 285 287 289 290 291 297 302 307 312 319 319 320 321 325 326 326 326 327 328 327 328 328 327 327 326
280 281 281 279 279 280 279 279 280 280 280 283 284 285 286 290 293 293 295 299 303 310 316 318 320 321 319 321 322 324 326 327 328 328 328 327 328 327
278 279 280 280 281 280 280 280 278 278 280 280 281 283 284 287 292 295 298 299 303 309 315 317 316 317 317 316 319 320 323 325 327 328 328 328 328 328
277 277 277 276 280 280 280 279 278 279 279 279 279 280 282 285 290 292 299 301 307 311 311 317 318 318 318 317 316 317 318 321 324 326 327 327 327 326
276 276 276 278 279 280 281 280 279 278 277 277 278 280 282 284 289 293 299 303 312 312 313 316 318 317 318 319 320 319 317 316 321 322 323 324 325 325
276 276 275 276 277 277 278 279 278 277 276 276 277 279 282 284 288 295 299 306 314 315 314 318 320 321 321 323 322 320 318 318 318 319 319 320 320 319
274 274 274 274 275 275 277 276 277 277 276 277 277 278 281 283 289 296 301 307 314 315 315 314 317 319 320 321 320 321 321 317 317 318 314 314 311 311
273 272 272 272 272 272 272 274 275 275 275 276 277 277 280 282 285 296 303 309 315 315 315 316 314 312 310 311 315 320 318 317 314 312 311 309 305 303
272 271 271 271 271 271 271 272 273 275 275 276 276 276 279 281 284 288 297 308 315 315 316 316 317 315 307 307 307 309 320 315 311 304 304 303 305 301
271 271 270 270 270 270 271 271 273 274 276 277 276 276 278 281 282 284 288 299 302 311 313 309 309 313 310 309 308 301 305 315 309 303 296 296 297 298
271 270 270 270 270 270 270 271 272 273 275 276 276 276 278 280 281 283 286 291 295 301 306 304 306 305 311 311 307 297 297 296 302 307 299 296 293 290
270 270 269 269 269 269 269 270 271 273 274 276 276 276 277 279 281 283 284 285 288 292 298 299 300 301 302 304 302 301 295 294 294 293 295 300 295 288
269 269 269 268 268 268 269 270 270 272 273 275 276 276 278 279 280 282 284 285 286 288 291 294 296 297 299 300 300 293 291 290 288 288 288 291 290 291
Wind_Speed
25 23 24 27 28 28 28 29 33 41 41 39 41 40 33 31 36 35 36 36 41 48 48 50 51 47 53 50 47 47 43 41 39 37 35 35 36 32
25 26 29 30 30 31 31 31 30 38 47 35 44 43 42 41 35 35 36 37 39 46 50 51 58 52 51 54 51 48 45 43 41 39 36 34 33 31
33 32 31 32 30 29 32 32 33 34 43 43 44 43 43 42 40 40 41 42 40 44 48 54 57 58 51 57 55 50 47 45 43 41 38 36 36 34
34 35 34 32 32 31 33 34 35 35 38 46 43 48 42 39 43 42 43 44 41 43 45 55 55 59 60 59 55 52 50 47 46 43 41 39 37 37
35 33 33 33 32 32 32 35 35 34 40 46 46 45 46 39 42 42 46 42 42 39 50 39 54 56 60 60 55 53 53 50 47 45 43 42 39 39
32 30 30 32 32 32 35 36 36 37 38 41 47 42 44 45 44 41 44 46 46 42 44 52 48 49 59 61 60 57 56 54 50 46 44 43 43 40
31 31 31 29 30 28 30 34 36 38 40 39 42 42 39 38 32 34 43 44 45 45 44 46 45 55 58 63 63 60 60 54 53 50 47 43 42 39
31 34 33 30 29 31 29 32 35 40 44 47 51 47 42 40 44 42 42 39 41 43 44 42 49 59 45 57 61 63 61 59 55 53 50 46 43 41
31 34 34 32 34 34 37 42 42 39 36 39 46 47 47 43 40 44 47 51 43 39 34 40 49 54 54 54 58 61 62 61 60 56 52 48 45 42
33 32 31 33 33 38 42 43 41 38 37 35 40 44 46 44 40 37 39 46 53 39 42 43 47 60 63 54 55 60 60 63 60 57 54 49 46 43
34 31 30 31 35 39 40 40 39 39 36 38 44 50 50 47 47 44 51 47 47 38 42 43 47 54 56 54 52 51 57 58 57 56 54 52 49 47
36 34 32 32 36 36 36 35 37 43 45 48 49 47 48 44 39 46 51 55 50 37 44 52 36 45 35 41 44 50 53 54 55 56 55 54 52 50
38 37 35 35 33 34 33 34 38 40 37 40 45 44 44 45 40 44 45 52 56 52 39 46 50 37 33 30 45 45 51 54 53 53 54 54 53 52
37 35 36 35 34 34 35 35 35 36 39 43 44 44 42 46 42 42 42 47 57 54 47 56 52 52 46 37 37 43 42 45 49 54 54 52 51 50
34 30 34 37 37 38 39 42 44 46 46 45 48 49 49 47 41 41 38 43 47 53 55 53 56 63 56 52 47 48 48 45 44 46 49 50 51 50
37 36 39 42 43 44 45 47 48 50 49 47 47 52 49 50 40 34 36 39 46 45 41 51 45 45 56 55 52 48 54 46 49 47 46 45 44 43
34 39 44 48 50 51 51 51 52 54 54 53 54 52 52 51 37 16 32 38 46 41 37 49 46 51 49 48 52 50 49 49 45 51 49 45 41 39
36 40 41 45 46 50 52 55 55 56 56 55 55 52 52 51 47 17 29 42 46 40 37 36 43 43 40 42 50 50 46 50 46 48 48 46 41 38
39 39 40 42 45 48 50 53 55 56 55 55 57 54 52 52 48 35 12 31 43 40 39 42 43 46 42 28 31 34 48 48 49 45 47 46 47 43
38 37 40 42 44 46 51 54 55 56 58 57 58 56 53 51 47 41 27 7 11 33 37 42 45 47 40 38 33 38 36 45 52 50 49 44 41 40
38 39 40 42 43 45 49 52 54 55 56 56 57 58 54 53 48 40 36 20 6 14 28 37 38 35 39 41 34 32 31 30 43 54 55 49 45 41
34 37 38 41 42 45 49 51 54 54 54 54 56 57 56 53 49 42 33 23 12 1 9 17 25 28 25 33 35 44 39 34 37 40 45 48 59 41
31 34 35 40 39 42 45 48 51 51 52 51 52 55 54 52 49 41 32 23 13 7 6 11 17 19 22 27 36 41 42 43 46 49 37 40 42 36
Wind_Direction
316 315 305 302 300 302 298 294 294 298 296 298 295 291 275 288 287 289 270 256 239 240 230 229 223 229 230 227 225 224 223 220 220 221 222 224 223 224
314 308 306 306 303 299 295 291 291 290 290 294 296 294 286 279 277 284 283 272 264 250 237 232 226 228 230 228 225 223 223 222 220 222 221 222 223 221
311 312 310 310 308 303 298 292 291 289 288 294 291 288 289 278 281 281 278 276 270 262 251 239 231 227 226 229 226 223 224 223 223 223 222 221 225 225
318 319 317 315 311 308 304 302 301 299 289 294 300 299 295 293 272 275 277 274 275 261 259 247 237 230 226 225 225 224 223 224 224 224 224 224 226 225
325 324 325 322 318 315 308 301 300 293 292 293 298 300 291 294 291 271 269 273 268 263 259 249 238 234 228 224 223 226 225 223 224 225 225 226 225 227
331 330 327 320 314 306 303 303 301 299 296 292 295 294 292 292 286 277 271 272 269 264 260 247 257 240 231 225 226 225 226 223 224 224 226 227 227 228
333 331 325 318 312 313 307 302 300 298 296 293 291 294 289 286 287 287 274 277 270 267 259 252 252 242 230 226 225 227 226 225 224 226 226 228 229 231
335 329 329 330 325 317 312 298 291 291 288 288 287 286 285 284 288 272 266 283 261 262 259 263 237 230 230 230 225 226 227 226 227 226 227 229 231 232
335 337 335 331 324 319 306 303 302 300 296 291 287 284 284 287 290 285 264 265 277 252 249 258 244 245 256 243 226 225 227 226 227 227 227 228 230 232
340 343 336 329 328 323 323 319 315 311 306 301 287 283 282 281 276 274 272 268 263 263 243 228 227 225 233 235 230 227 226 225 225 226 226 226 229 230
344 346 339 338 334 333 329 323 317 314 308 297 287 285 287 282 272 265 259 258 260 263 236 233 229 225 225 225 227 225 224 224 223 225 224 223 226 228
345 347 349 345 340 339 335 329 325 319 315 312 309 305 302 294 274 258 257 250 248 254 248 223 217 212 216 225 219 225 221 219 221 223 221 223 226 227
346 347 350 350 349 349 349 345 333 326 323 322 320 313 308 301 285 266 253 248 243 242 244 229 216 214 203 202 217 213 215 217 213 216 220 224 226 226
347 351 347 345 354 359 359 356 349 347 341 336 328 324 317 313 291 273 256 245 238 239 250 225 224 223 219 207 201 206 205 209 213 216 218 219 221 221
350 348 352 1 3 4 7 6 4 358 348 339 334 335 329 322 300 271 250 232 238 235 239 236 216 219 218 209 208 203 200 200 203 209 213 217 219 220
354 2 2 4 8 7 7 8 7 2 352 344 338 338 331 330 318 271 242 225 227 225 239 210 214 219 211 216 219 207 203 197 200 204 208 211 214 218
356 3 4 5 5 6 6 6 7 4 356 356 350 341 338 339 337 284 230 227 221 215 206 202 201 209 214 219 210 214 212 205 207 203 204 206 208 212
4 2 359 359 357 357 357 359 3 2 359 358 355 346 344 345 348 353 223 228 219 221 217 210 203 202 202 203 212 206 204 207 204 205 204 204 199 202
4 1 359 355 354 355 355 357 356 1 2 3 360 352 349 352 356 359 1 206 220 217 221 220 218 212 197 185 200 210 207 204 200 198 201 202 200 197
3 360 356 354 354 353 355 358 0 2 5 7 4 358 352 354 358 0 359 75 224 196 201 199 202 212 205 204 186 195 202 211 200 194 191 193 198 193
358 358 356 356 356 355 355 359 2 4 5 6 5 2 354 358 357 1 14 20 283 205 197 196 196 193 197 214 192 176 188 206 210 201 193 187 177 167
357 353 355 353 357 357 355 359 2 5 5 6 8 5 1 1 1 14 18 11 357 156 184 192 204 203 204 200 188 184 173 177 191 192 190 193 178 167
354 352 354 350 355 357 354 359 1 4 5 4 8 7 7 6 8 13 18 16 8 42 136 179 192 197 195 190 182 167 165 168 170 171 172 177 176 183